User: anonymous   Login
Location: Mentone
(34.5413°N, 85.5351°W)
Time: 04:52:30
(UTC-06:00)
Language:

Cosmos 1703 - Orbit

View from above orbital plane
View from above orbital plane
View from above satellite
View from above satellite

Ground track
Ground track

The orbit data is extracted from the following two-line orbital elements,

1 16262U 85108A   14326.44133707  .00006127  00000-0  41013-3 0  5662
2 16262 082.4946 088.6661 0011733 284.3056 075.6869 15.06706433577465
Epoch (UTC): 22 November 2014 10:35:31
Eccentricity: 0.0011733
inclination: 82.4946°
perigee height: 538 km
apogee height: 554 km
right ascension of ascending node: 88.6661°
argument of perigee: 284.3056°
revolutions per day: 15.06706433
mean anomaly at epoch: 75.6869°
orbit number at epoch: 57746

The dashed part of the orbit path shows where the satellite is in the earth's shadow,  

DLR